Location: Santa Cristina
(46.5667°N, 11.7167°E)
Time: 06:49:00
(UTC+00:00)

Cosmos 1943 Rocket - Pass Details

Date: 21 April 2021
Orbit: 812 x 844 km, 71.0° (Epoch: 05 May)

Event Time Altitude Azimuth Distance (km) Brightness Sun altitude
Exits shadow 01:29:14 21° 147° (SSE) 1,803 3.7 -24.0°
Maximum altitude 01:31:50 31° 104° (ESE) 1,452 3.6 -23.7°
Drops below altitude 10° 01:36:43 10° 45° (NE) 2,464 5.7 -23.2°
Sets 01:39:24 0° 35° (NE) 3,399 6.8 -22.9°
